BELINTERSAT-1

Last updated on Wed Feb 04 2026 00:02:52 GMT+0000 (Coordinated Universal Time)

1 41238U 16001A 26034.56919946 .00000099 00000+0 00000+0 0 9996 2 41238 0.0096 227.9706 0001120 66.7731 95.3836 1.00271732 36895
UTC large
Height (km)
Speed (km/s)
/
Latitude / Longitude
Inclination (degrees)
Orbital Period (minutes)
Azimuth
Elevation
Range (km)
Doppler Factor

Next 0 passes for location: London (51.5072 / 0.1276)

Sorry there are no passes over London.